RH
45 40 42 51 65 81 93 99 100 100 100 100 100 99 99 100 100 100 100 100 100 100 100 100 100 93 76 57 42 33 30 32 40 53 61 58 47 35 31 32 33 33 33 32 32 32 33 35 37 34 30 31 34 39 46 49 48 46 43 35 31 32 33 29 24 22 23 28 34 38 43 42 36 31 27 25 27 31 38 47 54 60 64 68 72
58 49 39 37 47 68 89 99 100 100 100 100 101 100 99 101 101 100 100 100 100 101 100 100 101 96 81 64 50 39 33 33 38 49 60 64 60 48 37 33 33 33 32 32 32 32 32 35 37 36 32 31 35 40 44 47 48 48 46 39 33 33 34 31 26 21 20 25 32 37 43 46 43 38 32 27 25 27 30 37 45 52 57 62 67
67 61 52 43 38 50 79 100 101 99 101 100 100 100 100 101 101 100 100 100 100 100 100 99 101 99 86 70 57 44 36 35 37 47 59 66 67 60 48 39 35 34 34 33 34 33 32 35 38 37 34 34 39 42 45 47 48 48 47 42 36 35 36 32 27 23 20 22 29 37 43 46 49 47 39 32 29 27 27 30 35 42 49 55 60
59 59 59 56 47 45 69 98 102 99 101 101 99 101 101 101 101 100 100 100 100 100 100 99 100 101 91 76 63 48 39 36 37 44 57 66 70 69 61 50 40 37 36 36 37 35 33 36 40 39 36 39 45 47 47 49 50 49 48 43 37 36 38 35 29 24 22 20 26 36 43 47 52 54 47 38 31 28 27 27 29 34 40 46 53
41 44 52 60 58 51 61 87 100 100 100 101 100 100 101 100 100 100 100 100 100 100 100 100 100 101 94 80 67 52 41 38 38 43 57 68 71 72 70 62 51 43 40 40 41 38 36 39 42 41 40 45 52 53 51 51 52 52 51 45 38 36 39 39 33 26 23 22 24 34 44 47 52 59 57 47 38 34 31 29 28 30 33 39 45
29 36 49 64 69 65 62 73 92 101 100 100 101 100 101 101 100 100 100 100 100 100 100 100 100 101 96 83 71 55 43 40 39 43 57 69 73 74 74 72 64 52 45 45 46 43 40 42 43 44 47 53 58 59 57 55 56 56 53 48 40 37 40 42 37 29 25 24 25 33 44 48 53 65 69 59 48 41 36 33 33 32 32 34 39
40 52 67 75 77 79 78 79 91 100 100 100 101 100 101 101 100 100 99 100 100 100 100 100 100 101 97 86 74 59 46 40 39 42 55 69 75 76 76 76 73 64 56 55 54 49 46 46 48 51 55 60 65 66 62 60 59 59 56 51 46 43 44 45 40 32 27 28 29 33 43 49 53 65 77 76 62 47 42 40 40 42 42 40 40
60 68 75 78 77 85 93 93 97 101 100 100 100 100 101 101 100 100 99 100 100 100 100 100 100 101 99 89 78 64 49 40 38 40 53 70 78 78 77 78 78 73 68 66 61 55 53 52 55 59 63 67 70 70 68 65 63 62 60 55 50 49 51 50 45 36 31 31 33 36 43 51 53 60 78 90 81 61 50 48 52 61 63 53 44
80 77 74 80 84 90 97 99 100 100 100 100 100 100 101 101 100 99 99 100 100 100 100 100 100 101 98 91 82 68 51 41 38 39 51 69 78 79 78 78 79 78 77 75 68 61 60 62 63 66 68 70 72 73 73 70 66 66 64 59 54 52 54 55 51 43 35 34 37 40 45 51 55 59 71 86 89 81 74 69 66 67 63 51 44
96 90 82 85 90 93 97 100 100 100 100 100 100 100 101 101 100 100 99 100 100 100 100 100 100 100 98 92 84 71 54 42 37 39 49 64 74 78 79 79 79 80 83 81 73 68 70 72 72 72 72 73 75 76 75 71 68 68 67 63 58 55 56 59 56 49 41 38 41 44 46 52 57 61 66 74 81 87 85 74 60 52 48 41 36
101 96 88 90 94 97 99 99 99 100 100 100 100 100 101 101 100 100 100 100 100 100 100 100 100 101 99 94 86 74 57 43 37 38 44 55 66 75 80 80 79 82 86 84 78 77 80 80 77 76 75 76 77 77 75 71 70 71 70 66 62 58 59 62 60 54 46 43 45 47 47 52 59 63 66 69 71 73 72 63 52 45 42 36 29
96 91 88 93 97 99 100 98 98 100 100 99 100 100 101 101 100 100 100 100 100 100 100 100 100 101 100 95 88 76 60 45 38 36 39 48 61 72 79 80 79 82 88 86 82 84 87 84 81 81 79 78 79 79 77 76 75 75 74 70 66 64 65 65 63 58 51 44 45 50 51 52 57 62 64 65 66 65 63 59 54 48 43 37 31
85 84 87 93 96 99 101 98 98 100 100 100 100 100 101 101 100 100 100 100 100 100 100 100 100 101 100 96 89 77 61 47 39 35 36 45 58 69 76 80 81 83 88 87 85 90 93 88 85 86 84 81 80 82 84 83 82 79 77 74 71 72 75 75 69 62 56 49 45 50 56 57 57 60 63 65 66 66 64 60 56 51 46 40 36
83 86 88 92 96 99 101 99 99 99 100 100 100 100 101 101 101 100 100 100 100 100 100 100 100 101 101 98 90 77 61 48 40 35 35 43 57 68 74 79 82 85 89 88 88 93 97 94 90 91 91 87 83 86 91 91 86 82 82 83 81 78 77 77 75 68 62 56 50 49 55 58 58 60 64 65 65 66 65 61 56 50 46 42 38
86 88 89 93 98 100 99 98 99 99 100 100 100 100 100 101 101 100 100 100 100 100 100 100 100 101 100 98 90 76 61 49 40 35 34 42 58 69 73 77 83 88 90 90 92 97 102 99 94 95 98 94 90 92 96 95 89 84 85 89 90 87 82 76 75 74 69 63 56 52 51 54 58 61 62 62 61 61 61 59 55 50 44 40 36
88 90 91 94 99 100 97 94 95 98 100 100 100 100 100 100 101 100 100 100 100 100 100 100 100 101 100 98 90 75 60 49 40 35 35 44 58 67 71 77 84 91 94 94 94 99 104 102 97 98 102 99 95 97 100 98 92 87 87 89 91 93 92 84 77 76 75 70 64 57 52 50 54 58 60 60 58 57 57 55 52 48 43 38 34
93 95 96 96 99 101 99 95 94 96 99 101 100 100 100 100 100 100 100 100 100 100 100 100 100 101 100 98 88 73 59 48 40 35 38 48 60 69 74 79 85 93 98 98 98 101 103 101 98 100 103 100 98 101 102 98 93 88 88 89 90 92 96 94 87 82 81 77 71 65 58 52 49 51 55 58 58 57 56 53 51 48 44 39 35
95 96 97 98 100 102 102 100 98 97 99 100 101 100 100 100 100 101 100 100 100 100 100 100 100 101 101 97 86 72 59 48 40 38 44 56 67 75 81 84 88 94 100 101 101 102 100 99 100 101 103 101 100 102 102 96 91 89 89 89 88 91 98 100 95 89 86 84 80 74 68 61 54 49 47 48 52 52 50 48 47 45 39 34 30
91 94 97 100 100 100 101 102 102 100 100 100 100 100 100 100 100 101 100 100 100 100 100 100 100 101 100 95 84 69 57 48 41 41 51 64 75 82 87 88 90 96 102 103 102 99 96 97 101 102 102 102 101 101 100 96 90 90 94 91 86 88 98 102 97 91 87 86 84 81 77 71 64 56 50 45 43 42 39 38 37 35 30 27 26
82 90 95 100 102 101 100 100 101 102 102 101 100 100 100 100 100 101 100 100 100 100 100 100 100 101 100 93 81 66 56 47 41 44 57 71 81 88 91 90 92 97 102 104 102 99 98 100 103 103 102 102 102 101 101 99 94 92 93 90 85 88 97 99 96 93 89 86 85 82 79 76 70 63 58 53 48 43 37 32 31 30 27 27 27
66 79 89 98 103 103 101 100 100 101 102 102 101 100 100 100 100 100 100 100 100 100 100 100 101 101 99 90 77 63 54 47 43 48 63 78 88 95 95 95 97 100 102 103 103 103 103 103 103 103 103 103 102 102 103 102 100 96 91 84 80 86 92 93 94 96 91 85 82 79 78 78 77 71 66 61 57 52 46 39 35 32 29 27 27
47 65 81 94 101 103 102 101 100 100 100 101 100 100 100 100 100 100 100 100 100 100 100 100 101 101 97 87 74 60 52 48 47 55 72 87 96 101 100 98 100 101 99 99 100 101 101 102 102 102 103 101 99 100 102 103 102 101 97 89 81 80 83 86 91 95 91 85 83 81 77 78 80 78 74 68 64 62 60 55 49 42 37 35 32
37 60 81 94 100 102 103 102 101 100 100 100 100 100 100 100 100 100 100 100 100 100 100 100 101 101 95 83 70 58 51 52 56 65 81 95 101 102 101 100 100 99 95 94 96 97 99 103 104 103 102 100 99 100 102 103 101 100 99 95 88 84 84 84 86 90 91 89 87 84 80 78 79 81 80 75 71 71 71 68 61 53 47 44 40
34 62 85 96 100 102 102 102 102 100 100 100 100 100 100 100 100 100 100 100 100 100 100 100 101 100 92 78 66 55 52 57 65 74 88 100 103 101 100 99 96 93 91 93 97 99 100 102 103 103 102 101 101 100 100 99 97 93 90 90 89 88 89 88 86 88 91 92 91 90 87 83 79 79 84 84 80 76 74 72 68 61 53 48 44
28 61 88 98 100 101 100 102 103 100 100 101 100 100 100 100 100 100 100 100 100 100 100 101 101 97 87 74 61 53 54 62 71 81 94 102 102 100 99 97 94 93 94 97 98 97 99 101 102 101 100 99 98 98 97 97 96 94 91 91 91 91 91 92 93 93 90 87 87 89 92 91 86 83 87 91 90 85 80 75 70 65 59 54 50
17 54 88 99 99 99 99 100 102 100 99 100 100 100 100 100 100 100 100 100 100 100 100 101 101 95 83 70 58 53 56 66 77 89 99 102 100 100 100 98 95 95 97 97 96 96 98 101 102 100 99 98 98 98 98 97 98 99 98 97 96 94 91 92 94 95 91 85 80 80 85 93 95 93 92 93 94 95 94 88 82 76 71 64 59
7 38 79 98 98 98 100 100 101 101 100 100 101 100 100 100 100 100 100 100 100 100 100 101 100 92 79 66 57 53 58 68 79 91 100 101 100 100 100 99 97 97 98 98 98 99 100 101 102 102 102 102 101 100 99 99 99 99 99 98 97 95 93 92 91 91 89 84 79 76 77 83 90 94 95 94 92 93 94 92 89 87 82 74 66
2 20 62 95 101 99 101 101 101 101 100 101 102 101 99 100 101 100 100 102 101 100 101 102 98 88 75 63 55 55 61 69 77 89 99 102 101 100 100 100 99 99 100 101 101 102 102 101 101 103 103 102 100 100 101 100 99 98 97 96 95 93 92 90 88 87 85 81 77 75 75 78 83 90 95 97 95 95 95 92 90 90 87 82 75
2 8 41 82 101 101 102 103 102 100 100 101 102 102 100 100 100 100 101 102 102 101 101 102 96 84 71 61 54 55 61 69 77 86 95 101 103 102 102 102 101 101 101 101 102 103 103 102 102 102 102 101 99 99 99 99 98 97 96 95 93 91 89 87 85 83 82 79 76 75 75 78 82 87 92 96 99 102 101 96 94 92 87 82 80
4 4 21 61 94 102 101 103 102 100 100 101 101 102 101 100 100 101 102 103 103 102 101 101 93 81 70 61 55 56 62 69 75 81 88 96 102 102 101 102 102 101 101 102 103 104 104 103 102 101 101 100 98 98 98 97 96 95 94 93 91 89 86 84 82 80 79 78 77 76 76 79 83 86 90 94 99 103 103 100 99 95 86 80 80
5 4 10 41 80 100 101 102 103 100 100 101 101 101 100 100 100 101 102 104 103 101 102 100 90 78 68 60 57 61 64 65 71 80 86 90 92 93 97 100 99 98 100 102 102 101 100 99 98 97 96 95 95 95 95 95 94 93 92 91 89 87 85 82 80 79 79 79 78 78 79 82 86 88 90 94 99 103 103 102 101 97 89 84 82
4 5 8 29 67 95 102 101 101 101 100 100 101 101 100 100 101 100 101 103 102 100 102 99 87 75 67 59 59 65 67 67 73 81 83 84 85 89 94 96 95 95 97 97 96 96 96 95 95 94 93 92 92 92 92 92 92 92 91 91 91 91 89 86 84 83 83 83 83 84 86 89 90 90 91 95 100 102 102 103 103 100 95 91 89
3 6 10 25 57 89 102 100 100 101 100 100 101 100 100 100 101 101 102 103 102 101 102 98 87 76 68 61 61 67 70 73 78 81 81 83 86 89 93 96 96 94 93 93 95 96 96 94 93 92 92 92 93 93 94 94 95 95 96 97 98 99 98 96 94 92 92 92 92 93 94 94 93 92 92 95 100 103 102 102 103 102 100 97 94
3 7 16 31 58 87 101 101 100 100 100 101 101 101 100 100 100 102 103 102 102 102 103 98 88 78 69 64 65 69 72 76 80 83 86 88 87 87 94 100 98 93 91 94 95 95 92 91 92 93 94 96 98 99 100 101 101 102 103 103 104 104 103 103 101 100 100 100 101 100 100 98 96 96 96 99 102 104 103 102 102 102 101 99 96
3 7 19 40 69 93 101 100 100 100 100 101 101 100 100 100 100 102 102 101 100 102 102 98 90 79 70 65 64 70 77 82 85 88 91 90 86 89 99 103 99 94 94 95 95 93 91 92 95 98 99 99 100 103 104 103 103 103 104 105 104 103 103 103 102 101 101 102 102 103 103 103 101 101 101 102 102 102 101 101 101 101 101 101 100
4 6 17 42 75 97 101 99 101 100 99 100 101 100 100 100 100 101 101 100 100 101 102 98 89 81 75 68 65 68 76 83 89 94 95 93 91 95 102 103 102 101 100 98 95 94 94 96 99 102 102 101 102 104 105 104 103 102 103 104 103 103 103 102 101 101 101 100 101 102 102 103 103 102 102 102 101 100 100 100 100 102 102 103 103
6 9 19 44 77 97 100 100 101 100 100 100 100 100 100 100 100 100 100 100 100 101 102 98 88 80 76 74 70 68 71 80 91 97 96 95 98 101 103 104 104 104 103 102 99 96 97 100 103 105 105 105 105 106 105 104 103 103 102 103 102 102 103 103 103 102 102 101 101 101 100 101 101 101 101 101 100 100 101 102 102 104 104 103 103
12 18 31 55 81 96 100 101 100 100 100 100 100 100 100 100 100 100 100 100 100 101 102 98 87 77 73 73 72 69 71 82 94 95 93 96 102 104 104 103 102 101 103 104 102 99 100 104 105 104 104 104 104 105 105 105 104 103 102 102 102 102 102 103 104 104 104 103 102 102 101 101 101 101 101 102 102 102 103 104 104 104 104 103 103
15 29 49 72 90 98 100 100 100 100 100 100 100 100 100 100 101 101 100 100 100 102 103 98 87 74 69 69 69 68 71 81 88 90 92 98 102 103 103 102 101 100 101 103 103 103 104 105 105 104 103 103 102 102 103 103 104 105 104 103 103 103 103 104 104 105 105 105 104 104 103 102 102 102 103 104 104 104 104 104 105 105 105 105 104
20 38 61 83 96 100 100 100 100 101 100 100 100 100 100 100 100 100 100 100 100 101 104 100 87 75 69 68 68 68 71 78 84 88 95 100 102 102 102 101 100 100 100 100 101 103 102 103 105 106 105 105 105 104 103 103 104 106 105 104 105 105 105 105 105 104 104 104 104 104 103 102 101 102 103 104 104 104 103 104 105 105 106 106 106
33 54 77 93 100 100 100 100 100 100 100 100 100 100 100 101 100 99 100 100 100 101 104 101 91 82 76 72 69 67 68 72 79 85 91 97 100 100 101 101 101 101 100 100 100 101 101 102 105 105 104 104 104 103 102 102 102 102 103 104 104 105 106 106 105 104 102 102 102 102 102 101 100 100 101 101 102 103 103 103 104 105 106 106 106
46 67 88 100 101 100 100 100 100 100 100 100 100 100 100 100 100 100 100 100 99 101 103 101 94 87 81 76 71 67 64 66 72 77 83 90 95 98 99 101 101 100 100 100 100 101 103 105 105 105 104 103 102 101 101 100 100 101 102 102 102 103 105 106 106 105 103 102 101 100 100 100 100 100 100 101 102 103 103 104 105 105 106 106 105
60 78 94 102 101 100 100 100 100 100 100 100 100 101 100 100 100 100 100 100 100 100 101 100 96 90 85 79 73 67 63 62 65 69 75 82 89 94 97 101 102 100 100 101 100 101 104 105 105 104 103 103 102 102 102 103 103 101 101 101 101 102 103 104 105 105 105 104 103 102 100 100 100 101 102 103 103 104 105 105 106 107 106 105 104
76 87 96 100 100 100 100 100 100 100 100 100 100 100 100 100 100 100 100 101 101 100 101 100 96 91 87 81 73 66 61 59 59 62 65 71 78 85 91 98 102 103 101 100 102 103 103 103 103 101 99 99 100 101 102 104 105 104 104 104 103 102 103 103 103 103 103 104 104 105 104 103 102 102 103 104 104 106 106 105 106 107 107 105 103
83 90 95 99 100 100 100 100 100 100 100 100 100 100 100 101 100 100 100 100 100 100 101 101 97 93 88 81 73 66 62 58 56 56 56 59 65 72 80 90 99 103 102 101 102 103 103 102 101 98 95 94 94 95 96 99 100 102 103 104 104 104 104 104 103 102 101 101 101 102 104 105 106 105 105 104 103 105 106 106 106 106 107 106 104
84 90 92 94 98 100 100 100 100 100 100 100 100 100 100 101 101 101 102 102 101 101 101 102 101 96 90 83 76 69 64 61 57 53 51 50 51 55 61 70 79 88 93 95 97 100 103 104 104 102 100 97 95 93 93 94 94 96 97 97 98 100 102 103 104 104 102 101 101 100 101 103 105 105 105 105 104 104 104 105 105 105 105 105 106
84 89 90 91 94 98 100 100 100 100 100 100 100 100 100 100 100 101 101 101 101 101 101 102 103 100 95 89 83 76 70 66 62 57 53 50 47 45 45 47 51 56 62 68 74 81 88 94 98 101 102 103 103 102 101 100 99 97 96 94 94 94 95 96 98 100 101 102 103 104 104 104 104 104 104 104 104 103 103 103 105 106 105 105 104
83 87 90 92 93 95 97 99 100 100 100 100 100 100 100 100 100 100 101 101 101 100 100 101 103 102 100 97 92 85 79 73 68 64 60 56 52 48 45 42 41 40 41 43 46 51 56 63 71 78 84 89 93 97 99 102 104 104 102 101 99 97 95 93 92 93 95 97 100 102 104 104 104 104 103 103 104 105 105 104 105 106 106 106 105
85 87 88 90 92 93 95 96 97 98 99 99 99 100 100 100 100 100 100 100 100 100 100 100 101 102 103 102 99 94 88 81 75 71 67 63 59 55 51 48 45 42 40 38 37 37 38 39 42 46 51 55 60 65 70 76 84 90 93 96 99 100 100 99 96 93 91 90 90 92 96 98 101 103 104 103 104 105 105 105 106 106 107 106 106
85 89 89 90 91 93 94 96 97 97 98 99 99 99 99 100 100 100 100 100 100 100 100 100 100 101 102 103 103 101 97 91 84 79 74 69 66 62 58 55 52 49 47 45 43 40 38 37 35 34 35 35 35 37 39 42 48 53 58 63 70 77 84 90 95 97 97 94 91 88 87 87 90 95 98 101 103 103 103 103 103 104 105 106 106
76 87 91 93 93 94 96 98 99 99 99 100 101 100 100 100 100 100 100 100 100 100 100 100 100 100 100 101 102 103 102 99 94 88 82 77 73 69 65 62 59 55 53 51 49 46 44 42 39 38 37 35 33 33 32 31 31 32 33 34 36 41 46 54 62 70 79 86 90 92 90 88 86 86 87 90 95 98 100 102 102 101 101 102 102
Wind_Speed
51 50 51 51 50 48 46 45 44 45 46 48 49 49 49 45 39 38 41 41 41 41 39 39 38 38 38 37 37 37 38 38 38 39 40 41 41 41 41 41 40 38 37 36 36 35 34 34 33 33 31 29 29 28 27 27 27 25 24 24 25 26 27 27 28 28 28 30 32 32 34 39 43 46 49 51 51 52 53 54 54 54 54 55 55
54 53 52 52 51 48 46 44 43 43 45 47 48 48 47 43 38 38 39 40 40 40 38 38 38 38 38 36 36 36 37 37 37 38 39 40 40 40 41 41 40 39 38 37 36 35 34 34 34 34 32 30 29 29 28 28 27 27 25 24 24 25 26 27 27 27 27 28 31 33 34 37 40 44 48 50 52 52 53 54 55 55 55 55 55
55 55 54 53 52 49 45 42 41 42 43 45 46 46 45 40 36 37 38 38 39 39 38 38 37 38 38 36 35 35 35 36 36 37 38 39 40 40 40 40 40 40 38 37 36 36 35 34 35 35 33 30 29 29 29 29 28 27 26 25 24 23 24 26 27 27 27 27 29 32 35 37 39 43 46 49 51 52 53 55 56 56 56 56 56
62 60 58 56 54 51 45 41 41 42 42 43 44 43 41 38 36 36 37 37 38 38 37 37 37 37 37 35 34 34 34 35 35 36 36 38 39 39 39 39 40 39 38 37 36 36 34 34 35 35 33 30 29 28 29 29 28 27 26 26 25 24 23 25 27 27 27 27 28 30 35 37 39 42 45 48 50 51 52 54 55 56 57 57 57
70 67 63 59 56 52 47 42 41 43 43 43 44 42 39 38 36 34 35 36 37 37 36 36 36 36 36 34 33 33 33 34 34 34 35 36 38 38 37 38 39 39 38 37 36 35 34 34 34 34 32 30 28 28 29 29 28 26 26 26 25 24 24 24 25 27 28 28 28 29 33 37 39 42 44 47 49 50 52 53 54 55 56 57 57
69 67 63 59 56 52 48 43 42 43 44 44 43 41 39 38 35 33 33 35 37 36 35 35 35 36 35 34 33 32 32 32 32 32 33 35 36 36 36 37 38 38 38 37 36 35 33 33 34 33 30 28 28 28 28 28 26 25 26 27 26 25 24 24 24 26 27 28 28 28 31 36 40 42 45 46 48 50 51 52 53 54 55 56 57
65 62 58 56 56 52 46 43 41 42 44 45 43 41 40 38 34 31 31 34 35 35 35 34 35 35 34 33 31 31 31 31 31 31 32 33 34 35 36 36 36 37 37 37 36 34 33 33 33 31 28 27 27 28 28 27 26 25 25 26 26 25 24 24 24 25 26 27 28 27 29 35 39 43 46 47 49 50 51 51 52 52 52 53 55
63 59 56 58 59 54 45 40 39 41 43 44 42 40 39 36 32 29 31 33 34 34 35 34 34 34 33 31 30 30 30 30 30 30 30 31 33 34 35 35 35 35 35 36 35 33 32 32 32 29 26 25 26 26 26 26 25 24 25 25 26 25 24 23 24 24 24 25 27 26 27 32 37 41 45 49 50 50 50 51 50 50 50 51 52
62 61 59 61 63 57 45 39 39 40 42 43 41 38 37 34 30 28 29 32 32 33 34 34 33 33 31 30 29 29 29 29 29 29 29 30 32 33 34 34 34 34 34 35 34 32 31 31 30 28 25 24 24 24 24 25 25 24 24 25 24 24 23 23 23 23 23 24 24 24 24 30 35 38 44 49 50 49 49 50 51 50 50 50 51
63 63 62 64 65 59 47 40 39 40 41 42 39 36 35 32 29 27 28 30 31 32 33 34 33 32 31 29 28 28 28 27 28 29 29 31 32 32 33 33 33 34 34 34 32 31 31 30 29 27 24 23 23 23 23 24 24 23 23 23 23 22 22 21 21 22 22 22 22 22 23 26 31 34 39 44 48 50 50 50 50 50 49 50 50
61 63 65 66 62 55 47 41 39 39 40 40 37 34 33 31 29 27 27 29 30 32 33 33 32 31 30 29 27 27 27 27 27 29 30 31 31 31 32 32 32 33 33 33 31 30 31 30 27 26 24 22 21 21 22 22 22 21 21 22 22 21 20 20 20 21 21 21 20 20 21 23 25 29 32 34 40 47 49 48 49 48 48 48 48
60 63 64 60 54 49 47 43 39 39 38 38 35 33 33 32 30 26 26 28 30 31 32 32 32 30 29 28 27 26 26 26 27 29 30 31 30 30 31 31 32 32 32 31 30 30 31 29 26 25 23 21 20 19 19 20 20 20 20 20 20 20 19 19 19 19 20 20 19 18 19 19 20 23 26 28 32 38 41 43 44 44 43 43 43
57 57 55 52 49 48 46 43 40 39 37 35 35 34 34 34 31 27 26 28 30 30 31 31 31 30 28 27 26 26 25 26 27 29 29 30 30 30 30 30 31 31 31 30 30 31 31 28 25 24 22 20 19 18 18 19 20 19 18 18 18 17 17 18 18 18 18 19 18 17 16 17 18 19 22 24 26 30 33 35 36 37 38 39 40
54 53 52 51 50 47 45 42 40 39 37 34 34 35 35 35 32 27 27 28 29 29 30 31 31 29 28 26 25 24 24 26 27 28 29 29 29 29 29 29 30 30 30 29 30 31 30 27 24 23 21 20 19 18 17 18 19 18 15 16 17 16 16 16 16 17 17 17 17 16 16 17 17 18 20 23 25 27 29 31 32 34 36 38 39
54 55 54 52 50 46 44 42 40 38 37 34 33 34 37 36 33 29 28 28 28 28 29 30 30 28 27 26 24 23 24 26 27 27 28 28 28 29 28 28 29 29 29 29 30 31 30 27 24 22 21 21 20 18 18 19 19 17 14 14 14 15 16 16 15 14 14 15 15 16 16 17 16 18 21 24 26 28 28 30 31 33 35 36 37
55 55 54 51 49 46 43 41 39 38 37 34 32 33 36 37 34 30 29 28 28 27 28 29 29 27 26 24 23 22 24 26 26 27 27 27 28 28 28 28 28 28 28 29 31 32 30 27 24 22 21 22 21 20 20 20 19 17 15 14 13 12 15 17 16 14 13 13 14 15 16 16 16 17 21 23 26 27 28 30 31 32 33 34 35
55 54 52 50 48 45 43 40 38 37 36 34 31 30 33 35 34 31 29 28 27 26 27 27 27 26 25 23 22 22 23 25 26 26 26 26 26 27 27 27 27 27 28 30 32 32 30 28 24 21 21 22 22 22 22 21 20 18 17 15 14 12 13 16 17 16 14 13 12 13 16 16 16 17 20 22 24 25 27 29 29 29 30 31 31
54 53 52 49 46 44 42 40 37 36 35 34 31 29 29 32 32 31 29 27 26 25 25 26 26 25 24 23 22 21 22 24 25 25 25 25 25 26 26 26 26 26 27 30 32 32 31 28 24 21 21 22 23 24 24 23 21 20 18 17 15 12 12 16 18 18 17 14 12 12 14 16 17 18 20 21 23 25 26 27 26 26 27 27 27
54 53 51 48 46 43 42 39 37 35 34 33 31 29 27 28 30 30 29 27 26 24 24 24 24 24 23 22 21 21 22 24 24 23 24 24 24 25 25 26 26 26 27 30 32 33 31 28 24 22 22 23 25 26 25 24 23 21 20 20 17 13 14 18 20 19 18 17 15 13 13 15 17 19 20 21 22 24 25 25 25 25 26 25 24
55 54 52 49 45 43 41 39 36 35 33 32 31 28 26 26 28 29 28 26 25 23 23 23 23 23 22 20 20 20 22 23 23 23 23 23 24 24 25 25 25 26 27 30 32 32 30 27 25 23 23 25 27 27 26 26 25 24 24 23 19 16 18 20 20 19 20 19 17 16 14 14 17 18 20 21 22 23 24 24 24 25 25 25 24
55 55 53 49 44 41 40 38 36 34 33 31 29 26 24 24 26 28 27 25 23 22 21 22 22 21 20 19 19 20 21 22 22 22 22 23 24 24 24 24 25 26 27 29 30 30 29 27 25 24 25 26 27 28 27 26 26 26 26 25 21 19 21 22 19 19 21 21 19 18 15 14 15 16 18 21 22 23 24 24 24 25 26 26 26
55 55 54 51 45 40 38 37 36 34 33 31 27 23 21 22 25 27 26 24 22 20 20 21 21 20 19 19 19 20 21 21 21 21 21 22 23 23 23 24 25 26 28 28 29 28 27 26 25 24 26 27 28 28 28 26 26 26 26 26 24 22 23 23 21 21 23 23 22 21 18 15 14 14 16 18 20 21 21 23 24 25 26 27 28
55 55 54 51 46 41 37 36 35 34 33 30 26 21 20 21 24 26 25 23 21 19 19 20 19 19 18 18 18 19 20 20 20 20 20 22 22 23 23 24 26 28 28 27 26 25 24 25 25 26 27 27 27 27 27 27 28 28 27 27 27 26 25 25 23 22 23 24 24 23 21 18 16 14 14 14 16 19 20 22 23 25 26 27 27
55 54 52 49 44 41 37 35 34 34 32 29 24 20 18 21 24 25 24 22 20 18 18 19 18 17 17 17 18 18 19 19 20 20 20 22 23 24 24 25 27 27 26 24 23 23 24 25 26 26 26 26 27 28 28 29 29 29 28 28 28 27 27 27 25 23 22 23 24 24 23 22 19 16 13 13 15 19 21 23 23 25 25 26 26
55 54 51 46 42 40 37 34 33 32 31 27 22 19 18 21 24 24 23 21 19 18 18 18 17 16 17 17 17 18 18 19 19 19 20 22 23 24 24 25 25 25 23 22 23 24 25 25 25 25 25 26 27 27 28 28 28 28 28 28 27 27 28 28 27 26 24 24 24 24 24 23 21 18 16 16 17 18 20 22 23 23 24 24 24
55 54 49 45 41 39 36 35 33 31 29 25 21 18 18 21 23 23 21 20 18 17 17 16 16 16 16 17 17 17 18 18 18 19 20 22 23 23 23 24 25 24 24 24 24 24 24 25 25 25 25 25 26 27 27 28 27 28 28 28 28 28 28 29 29 28 26 25 24 23 22 23 23 22 20 20 20 19 20 21 21 21 22 23 23
55 54 50 44 40 38 37 35 33 31 28 24 20 18 18 21 22 21 20 18 17 16 16 15 15 15 16 16 16 17 17 17 18 19 21 22 23 24 24 25 25 25 25 24 24 24 25 25 25 25 25 26 26 27 28 28 28 28 28 28 29 29 29 30 30 29 28 27 26 25 23 23 24 25 24 24 23 22 22 23 22 21 21 22 23
56 54 51 45 40 38 36 34 32 30 26 22 19 18 18 20 21 21 20 18 16 15 15 15 15 15 15 16 16 16 17 17 17 18 20 22 23 24 25 25 26 26 26 25 25 25 26 26 26 26 27 28 28 28 29 29 28 29 29 29 30 30 30 30 31 31 29 28 27 26 25 25 24 24 25 26 25 24 24 24 23 23 22 22 22
56 53 51 46 41 38 35 33 30 27 24 21 19 17 18 20 21 20 19 17 15 15 15 15 14 14 15 16 16 16 16 16 16 17 18 20 21 23 25 26 26 26 26 25 25 25 26 27 27 28 28 29 29 29 29 29 29 29 30 30 30 30 30 30 31 31 30 28 27 27 26 26 26 25 26 26 26 25 26 26 25 25 24 23 22
55 52 50 47 43 39 36 32 28 25 22 19 18 17 18 20 20 20 18 16 15 15 15 14 14 14 14 15 16 15 15 15 16 17 17 17 19 20 21 22 23 23 23 24 25 25 26 27 27 28 28 29 29 29 29 29 29 29 29 30 30 30 30 30 30 30 29 28 28 28 28 27 27 26 26 26 25 26 27 28 27 27 26 24 22
54 52 49 46 43 40 36 32 28 23 20 18 17 17 19 20 20 19 17 15 15 15 15 14 14 14 15 15 15 15 15 16 15 15 16 17 17 17 17 17 18 19 20 21 23 24 24 25 25 26 27 27 27 28 28 28 28 28 28 28 29 29 29 29 29 29 29 28 28 28 28 27 27 27 26 25 25 25 26 27 28 28 27 25 23
53 51 48 45 42 39 36 31 27 22 18 17 16 17 19 21 20 19 17 16 15 15 15 15 14 14 15 14 14 14 15 15 15 15 16 16 16 15 14 15 15 16 18 20 20 21 21 22 23 24 24 25 25 26 26 27 27 27 27 27 27 27 27 27 27 27 27 27 27 27 27 27 27 27 26 26 25 25 25 26 27 28 27 26 25
52 50 48 45 42 38 35 31 25 20 17 16 17 18 20 21 21 19 17 16 15 15 15 15 15 14 15 14 14 14 15 15 15 16 16 15 15 14 13 13 14 16 18 18 18 18 19 20 21 21 22 23 23 24 24 25 25 25 25 24 24 25 25 25 25 26 26 25 25 25 25 25 26 26 26 26 25 25 25 25 26 27 27 27 26
50 49 46 44 41 37 34 30 24 19 16 16 17 19 21 21 21 19 17 15 15 15 15 15 15 15 15 14 14 14 14 15 16 16 15 15 15 13 11 12 15 17 17 16 16 17 18 18 18 19 19 19 20 20 21 21 22 22 22 21 21 21 22 23 23 23 24 24 24 24 24 24 25 26 26 26 26 25 25 25 26 27 27 27 27
49 47 45 42 39 36 32 28 23 18 16 16 17 18 20 21 20 18 16 15 15 16 15 16 16 15 15 15 14 14 15 15 16 16 16 17 15 12 11 13 15 15 15 15 15 15 16 16 16 16 16 17 17 17 18 19 19 19 19 19 19 18 19 20 21 21 22 22 22 22 23 23 24 25 26 26 27 27 26 26 26 26 27 27 28
49 46 44 41 37 34 31 26 21 17 16 16 16 17 19 20 19 17 15 15 16 16 16 16 16 16 15 15 15 15 15 16 16 16 17 17 15 12 12 13 14 14 15 15 14 14 14 14 14 15 15 16 16 16 16 17 17 17 17 17 17 17 17 17 18 19 20 21 21 22 23 23 24 25 26 27 27 28 28 27 27 26 27 27 28
49 46 43 40 35 32 29 25 19 15 15 15 15 17 18 19 18 16 15 15 16 16 16 16 16 16 16 16 16 16 16 15 15 16 18 17 15 14 13 13 14 15 15 14 14 14 14 13 14 14 15 15 16 16 16 16 16 16 16 16 16 16 16 16 17 18 19 20 21 22 22 23 24 25 26 27 28 28 29 29 28 28 28 27 28
48 45 42 38 34 30 26 23 18 14 14 15 16 17 18 19 18 16 15 16 16 17 16 16 16 16 16 16 16 16 15 15 16 18 18 17 16 15 14 14 14 15 15 15 14 14 13 13 14 14 15 15 15 15 15 15 15 16 16 16 16 16 16 16 16 16 17 18 19 21 22 23 23 24 25 26 27 27 28 28 28 28 28 27 28
47 43 40 36 32 27 24 21 17 14 14 16 17 18 18 18 18 17 16 17 17 17 17 17 17 17 17 16 17 16 16 16 17 18 18 17 17 16 15 15 15 16 16 16 15 15 14 14 14 15 15 15 15 15 15 15 15 15 15 16 16 16 16 16 16 16 17 18 18 19 20 21 22 23 24 25 26 26 26 27 27 27 27 27 27
47 43 39 35 30 25 21 19 16 15 15 16 18 18 18 18 18 17 17 17 17 17 17 17 17 17 17 17 17 17 16 16 17 18 18 18 18 17 16 16 16 16 17 17 16 16 15 15 15 15 16 15 15 15 15 15 15 15 15 15 15 15 16 16 16 16 17 17 18 18 19 19 20 21 22 23 24 25 25 25 26 26 26 26 26
45 41 37 34 28 23 19 16 15 15 15 16 17 18 18 18 18 18 17 17 17 17 17 17 17 17 16 17 17 17 17 17 17 18 18 18 18 18 17 17 17 17 17 17 17 17 16 16 16 16 16 15 15 15 15 15 15 15 15 15 15 16 16 16 17 17 17 17 17 18 18 19 19 20 20 22 23 23 24 24 24 25 25 25 25
44 40 36 32 26 20 16 14 13 14 14 15 17 17 18 18 18 17 17 17 17 17 17 17 17 16 16 16 17 17 17 17 17 18 18 18 19 18 18 18 18 18 18 18 18 17 17 17 17 16 16 16 16 16 16 16 16 15 15 15 15 15 16 16 17 17 17 17 17 18 18 18 19 19 20 20 21 22 22 22 23 23 24 24 24
42 38 34 30 25 19 15 13 13 13 14 15 16 17 18 18 18 17 17 17 17 17 17 16 16 16 16 16 17 17 17 17 17 18 18 18 19 19 18 18 18 18 18 18 18 18 18 17 17 17 17 17 17 17 17 16 16 16 15 15 15 15 15 16 16 16 17 17 17 17 17 18 18 19 19 20 20 21 21 21 22 22 23 23 24
41 36 31 27 23 19 16 14 13 13 14 14 15 16 17 17 17 16 16 17 17 17 16 16 16 16 16 16 17 17 16 16 17 17 18 18 18 18 18 18 19 19 19 18 18 18 18 17 17 17 17 17 17 17 17 17 17 16 15 15 15 15 15 15 15 15 16 16 16 16 17 17 18 18 19 19 20 20 20 21 21 22 22 23 24
41 35 29 25 23 20 18 17 15 15 14 14 14 15 16 16 16 16 17 17 17 17 17 16 16 16 16 16 17 17 16 16 16 16 17 17 18 18 18 18 19 19 19 19 18 18 18 17 17 17 17 17 17 17 16 16 16 16 16 16 15 15 15 15 15 15 15 15 15 15 16 17 17 18 18 19 19 19 19 20 20 21 22 23 23
39 34 29 24 22 20 19 19 18 17 16 15 14 14 15 15 16 16 17 17 17 17 17 17 16 16 16 16 17 17 16 16 15 16 16 17 17 18 18 18 18 19 19 19 19 19 18 18 18 18 17 17 17 17 16 16 16 16 16 16 15 16 15 15 15 15 15 15 15 15 15 16 16 17 17 18 18 18 18 18 19 19 20 21 23
37 34 29 24 21 19 19 19 18 18 17 16 15 15 14 15 16 16 16 17 17 17 17 17 17 17 16 16 16 16 16 16 16 15 15 16 16 17 17 17 17 18 18 18 18 18 18 18 18 18 18 18 17 17 17 17 16 16 16 16 16 16 16 15 15 16 15 15 16 15 15 16 16 16 16 16 17 18 18 18 18 18 18 19 20
36 34 30 26 23 21 19 18 17 17 16 16 16 15 15 15 15 16 16 16 17 17 17 17 17 17 17 16 16 16 16 16 16 16 15 15 15 15 16 16 16 16 16 17 17 17 17 17 17 17 17 17 17 17 17 17 17 17 17 17 16 16 16 16 16 16 16 16 16 16 16 16 16 16 16 16 16 17 17 17 18 18 18 18 18
36 34 31 28 25 23 21 20 18 17 15 15 14 14 14 14 14 15 15 16 16 16 17 17 17 17 17 16 16 15 15 16 16 16 16 16 15 15 15 15 15 15 15 15 15 15 16 16 16 16 16 16 16 16 17 16 17 17 17 17 17 17 16 16 16 16 16 16 16 16 16 16 16 17 17 17 17 17 17 17 17 17 18 18 19
35 34 32 29 27 24 23 22 20 19 17 15 14 13 13 13 13 13 14 14 15 15 16 16 17 17 17 17 16 16 16 16 16 16 16 16 16 16 15 15 15 15 15 15 15 15 14 14 14 14 14 14 14 15 15 15 15 15 16 16 16 16 16 16 16 16 16 16 16 16 17 17 17 17 17 17 18 17 17 17 17 17 17 18 19
35 33 32 30 28 25 23 22 20 19 18 17 16 15 14 13 13 13 12 13 13 14 14 15 15 16 16 16 16 16 16 16 16 16 16 16 16 17 16 16 16 16 16 15 15 15 15 15 14 14 14 14 13 14 14 14 14 14 14 14 15 15 15 15 16 16 16 17 17 17 17 17 17 17 17 18 18 18 18 18 18 18 18 18 18
Wind_Direction
316 313 310 308 304 299 295 293 292 291 288 287 285 283 281 279 277 279 285 290 293 294 293 288 281 276 274 272 272 271 270 268 266 263 259 257 256 256 256 257 258 259 260 262 264 266 268 271 273 276 278 279 280 281 282 283 284 286 286 283 281 282 280 274 269 264 261 261 260 253 243 238 236 235 234 234 233 233 234 234 234 233 233 233 233
319 316 313 309 307 303 298 293 291 290 289 288 286 284 282 277 274 276 283 289 292 294 294 289 282 277 274 272 271 270 269 268 267 264 260 258 257 256 255 256 256 257 258 260 262 264 266 268 271 274 275 276 278 281 283 283 284 286 287 284 281 281 280 276 272 267 263 260 259 256 247 239 236 234 233 233 233 232 232 233 234 234 233 233 233
322 320 316 311 307 305 300 294 290 288 287 288 287 285 281 275 271 274 281 287 291 293 293 289 283 278 274 272 271 270 269 268 267 265 262 258 257 256 255 255 255 256 257 258 260 262 263 266 268 271 274 275 277 280 282 282 283 285 286 285 283 281 279 276 273 270 266 262 259 255 249 242 236 232 231 232 231 231 231 232 233 234 234 233 233
322 321 318 313 309 305 301 294 290 289 287 286 287 286 280 272 268 272 279 287 291 291 291 289 284 279 275 272 271 269 268 267 267 266 263 259 257 256 255 254 255 256 256 257 258 259 261 263 265 268 271 274 276 277 279 280 281 284 285 284 282 281 280 275 273 273 271 266 261 255 249 243 236 231 229 230 230 230 230 230 231 233 234 234 233
321 320 317 313 310 306 301 294 289 290 288 286 286 285 277 269 266 270 279 287 291 291 290 289 285 279 275 272 270 269 268 267 267 267 264 260 257 256 255 254 254 255 255 256 257 258 259 259 262 265 269 272 275 276 276 278 280 282 284 283 282 281 281 278 274 274 274 271 266 257 249 243 237 231 228 228 229 229 228 229 230 231 232 233 234
319 318 316 313 311 307 302 295 289 290 291 289 286 281 274 268 265 270 279 286 289 290 290 288 284 278 274 271 270 268 268 267 267 267 265 262 259 256 255 254 253 253 254 255 256 256 256 257 259 263 267 270 274 275 276 276 278 281 281 281 282 282 282 280 276 274 275 275 272 262 252 245 237 229 226 226 226 226 227 228 229 230 230 231 233
319 318 317 317 317 312 305 298 291 289 292 293 288 279 271 267 265 270 279 285 288 289 288 286 282 277 273 271 269 268 267 267 266 266 265 263 259 256 255 253 252 252 252 253 255 255 253 254 257 260 264 268 271 273 274 275 277 278 279 280 281 282 283 281 278 275 276 278 276 268 256 248 238 229 226 225 224 223 225 226 227 228 229 230 231
320 320 320 322 323 319 309 300 295 292 292 294 290 278 269 266 265 270 279 285 288 288 287 285 281 277 273 270 269 268 267 266 266 266 265 263 259 255 253 252 251 250 251 252 253 253 251 252 254 258 261 263 267 269 272 274 275 276 276 277 278 280 283 283 280 277 276 278 278 273 260 251 242 231 223 223 224 223 222 224 226 226 227 229 230
320 320 320 322 324 322 313 303 299 297 295 296 291 277 267 264 264 271 280 285 287 287 286 284 281 277 273 270 269 268 266 266 266 266 264 261 257 254 253 251 251 250 250 251 251 250 249 250 252 255 257 259 262 266 270 272 273 273 273 273 275 278 282 284 283 279 277 278 278 275 263 252 246 236 224 221 223 222 221 222 224 225 227 230 231
319 318 318 320 323 322 315 306 302 300 299 299 292 274 264 262 263 271 280 284 286 286 285 283 279 276 272 269 268 267 266 265 265 264 262 259 256 255 253 251 251 250 249 249 249 248 247 248 251 253 254 256 259 263 267 268 269 271 272 273 274 277 281 284 284 280 277 278 277 274 263 253 248 243 232 223 221 222 221 222 225 226 229 231 232
315 314 316 319 321 321 316 309 304 302 302 301 292 273 262 261 264 271 280 283 284 284 283 281 278 274 271 268 267 266 265 264 263 262 260 259 257 255 253 251 250 248 248 247 246 244 244 246 249 251 252 252 256 261 265 267 269 272 274 274 275 277 280 283 284 282 277 276 275 271 263 254 248 246 241 229 221 222 223 224 225 227 229 232 234
310 312 316 319 322 321 317 311 306 305 304 302 292 275 264 263 265 271 278 280 281 282 282 280 277 273 270 268 267 265 264 263 262 260 260 259 257 254 252 250 249 247 246 245 243 241 243 245 246 249 250 249 253 259 264 267 271 273 272 271 273 277 282 283 283 281 276 273 273 270 264 256 247 243 242 234 224 222 223 224 225 226 228 231 232
316 319 322 323 323 322 320 314 308 306 306 302 292 278 268 265 266 269 275 277 279 281 281 279 276 273 270 268 266 265 264 262 261 260 259 258 256 254 250 248 247 245 244 242 240 239 242 244 245 247 248 248 250 256 261 266 270 271 269 269 271 274 279 282 283 282 277 272 271 270 265 255 244 238 237 235 229 225 223 222 222 223 224 225 227
324 325 325 325 324 323 321 316 310 307 307 304 295 282 272 268 267 268 271 274 277 279 279 278 276 272 269 267 265 264 263 262 261 259 258 256 255 253 249 246 245 243 241 239 237 238 241 243 243 244 247 248 249 253 258 263 266 266 265 267 271 273 272 273 277 281 280 273 266 264 260 253 243 234 230 229 228 225 222 219 219 219 220 221 223
327 326 325 325 324 322 320 317 311 308 307 305 298 287 278 274 272 270 268 271 275 277 277 277 275 271 269 267 265 264 262 262 260 258 257 255 253 251 249 245 242 241 238 235 235 237 239 241 241 241 242 246 249 252 255 259 261 260 258 260 266 273 275 273 272 274 276 272 263 255 253 251 244 233 227 226 225 224 222 220 219 220 220 221 223
328 326 325 324 322 321 319 316 312 308 308 306 301 292 283 280 278 271 265 268 272 274 276 276 274 271 269 267 265 262 262 261 260 258 256 254 251 250 248 244 241 238 235 232 233 235 238 239 239 237 237 242 246 251 253 255 257 256 254 254 257 265 273 275 274 272 272 269 261 251 246 244 241 233 229 228 227 226 225 224 222 222 222 223 224
328 326 325 323 321 319 318 316 312 309 308 308 304 295 286 283 279 270 263 265 270 273 275 275 273 270 268 266 264 262 262 262 261 259 257 254 251 249 246 243 239 235 231 230 232 234 236 238 237 234 234 238 243 248 252 252 254 255 254 254 255 257 265 270 272 273 271 268 261 252 244 239 234 231 228 228 229 229 229 229 228 227 227 227 226
329 328 327 324 321 318 316 314 312 309 307 307 305 297 288 282 277 268 262 263 267 271 273 273 271 269 267 266 264 262 262 263 262 259 256 253 250 247 244 242 238 233 229 229 232 235 235 236 236 232 232 235 238 245 250 252 254 257 258 258 256 253 257 263 266 269 269 268 264 255 247 239 233 229 227 227 227 229 231 232 232 232 232 231 230
329 329 329 327 323 319 315 314 312 309 307 306 304 298 288 280 273 265 260 261 265 268 271 271 269 267 266 265 264 263 263 263 261 258 254 250 248 245 242 240 238 233 228 227 231 234 235 235 235 232 230 230 233 239 246 250 252 255 257 260 259 254 252 257 262 267 268 268 266 259 250 242 236 230 228 227 227 228 231 231 232 234 235 234 233
329 330 330 328 324 319 316 313 311 309 307 303 300 296 287 278 271 263 258 259 263 266 268 268 266 265 264 264 264 264 263 262 260 256 252 248 246 244 242 240 239 235 230 228 231 235 236 236 235 233 231 230 232 236 241 246 251 253 253 256 257 255 255 256 260 265 268 267 265 261 253 246 242 235 229 228 229 230 232 231 230 233 236 236 235
329 329 330 329 325 320 316 312 310 309 306 302 298 293 285 275 266 260 257 257 261 264 266 266 264 263 263 263 263 263 262 261 259 255 250 246 244 243 241 240 239 238 235 232 232 234 235 234 234 235 236 235 235 237 239 243 248 252 254 255 255 252 254 256 257 259 263 265 265 263 259 251 247 242 233 229 229 231 233 234 233 233 235 236 236
329 329 329 328 325 320 316 313 311 309 306 302 296 288 279 270 263 258 255 255 258 261 264 264 262 262 262 262 262 262 261 260 258 254 248 244 241 240 239 239 239 238 237 235 234 234 233 233 234 235 238 239 239 240 241 242 244 248 251 254 256 254 254 255 253 251 257 262 264 265 264 260 254 248 239 234 231 230 233 234 234 234 234 236 237
330 329 328 327 325 322 318 314 312 311 309 303 294 284 274 266 259 255 253 254 256 259 261 262 260 260 260 261 261 261 260 258 256 251 245 240 238 237 236 236 237 238 238 238 236 234 232 232 234 236 238 240 242 243 243 243 243 244 245 248 252 255 258 259 256 253 255 258 260 262 264 264 261 255 249 241 230 225 227 231 232 234 234 235 237
330 330 329 327 325 323 320 317 315 313 310 303 292 280 268 260 255 252 251 252 254 257 259 260 259 259 259 260 260 260 258 256 252 247 241 237 236 235 234 235 237 239 241 239 236 234 232 233 234 237 239 240 240 241 242 243 244 245 245 246 249 252 256 260 261 260 258 256 256 258 261 262 261 258 255 250 234 222 222 226 229 233 235 236 238
331 332 331 329 327 324 322 320 318 315 311 302 289 274 262 255 251 250 250 251 252 255 257 257 258 258 257 258 259 257 255 252 249 244 239 235 235 235 236 237 239 241 240 236 234 233 234 235 236 238 239 239 240 241 242 243 245 246 247 247 248 248 251 254 257 259 258 256 254 253 253 256 259 258 254 250 242 233 229 229 230 233 237 240 241
333 334 333 331 329 326 324 322 320 317 311 300 284 269 259 253 249 247 248 248 250 253 255 256 256 256 256 257 257 255 251 248 244 240 236 234 233 233 234 236 238 239 237 235 234 235 236 237 237 238 239 240 241 243 243 243 244 244 245 246 246 247 248 251 254 255 256 257 257 254 249 248 249 250 249 247 245 243 242 240 237 237 239 240 240
334 335 335 332 330 327 325 323 321 317 310 297 281 266 256 250 247 245 245 245 248 251 253 253 253 254 256 256 255 252 249 245 241 236 232 231 230 230 232 234 236 238 239 239 238 237 237 238 239 240 242 242 242 243 244 244 244 244 245 245 246 246 247 249 252 254 254 255 257 257 253 247 243 242 243 244 244 242 244 244 242 240 240 238 237
334 335 335 332 330 327 325 323 320 316 308 295 278 263 252 247 245 244 244 244 245 248 250 250 251 252 254 254 252 250 247 245 243 237 232 229 229 230 231 233 235 237 240 241 241 240 240 241 242 243 244 244 243 243 244 245 246 246 246 247 247 247 247 248 250 253 253 253 255 255 255 251 245 238 236 239 242 243 245 246 246 246 244 241 238
333 334 334 332 329 326 324 322 318 313 305 292 275 260 250 245 244 244 243 242 243 245 247 247 248 250 252 252 250 248 246 245 244 241 236 232 230 230 232 233 235 238 240 242 244 244 245 245 246 246 246 246 246 245 245 245 246 246 247 248 249 248 249 249 250 251 252 252 252 252 252 250 245 238 233 233 235 239 244 246 246 247 247 245 242
331 333 333 332 329 325 323 321 317 310 301 286 271 258 248 243 243 243 241 239 241 244 245 246 248 249 249 248 248 247 247 246 245 243 241 237 234 233 234 235 236 237 238 240 242 243 245 245 245 246 246 246 246 247 246 246 245 245 245 247 248 249 249 249 249 250 250 249 249 249 248 246 243 238 234 232 230 232 238 243 244 246 247 246 245
331 331 332 332 329 326 323 320 316 309 296 280 266 255 248 244 242 240 238 236 239 242 244 244 245 245 245 245 245 246 247 248 248 246 244 241 239 238 236 236 236 235 235 237 238 240 242 243 244 244 244 244 244 244 245 245 245 244 245 245 247 248 249 248 247 247 247 246 245 245 245 244 241 236 233 232 229 229 234 239 241 244 246 246 245
331 331 331 331 329 326 323 319 314 305 291 274 260 250 246 244 241 237 233 231 235 239 241 242 244 244 244 244 242 244 247 250 251 248 245 243 243 241 238 237 236 234 234 235 236 238 240 241 242 243 243 243 242 242 242 243 243 243 243 244 245 247 247 247 246 245 244 243 243 242 242 240 237 233 232 231 229 229 231 236 239 242 245 245 244
332 332 331 331 330 327 323 318 311 300 285 268 254 247 245 243 241 236 231 229 233 237 239 242 243 243 243 241 240 242 246 250 251 250 248 246 244 241 237 235 234 234 235 236 236 238 240 242 243 243 243 242 241 240 240 240 240 240 240 240 241 243 244 244 244 243 242 242 241 240 239 237 234 232 231 231 231 229 229 232 236 240 242 244 244
333 332 332 331 330 328 323 317 308 296 278 261 251 247 246 244 242 236 229 228 232 235 237 240 242 241 241 240 240 241 244 248 250 251 250 248 245 241 232 230 233 235 235 237 238 240 244 246 247 246 243 241 239 238 238 237 236 237 237 236 236 238 240 241 242 241 241 240 239 238 237 235 232 231 232 233 234 233 231 231 233 236 238 241 243
333 333 332 332 330 327 322 315 306 291 272 255 248 248 249 248 244 236 227 226 230 233 234 236 239 241 241 240 239 239 242 245 248 250 250 250 249 244 231 229 234 236 236 237 241 245 248 249 249 247 245 242 239 237 237 235 234 234 234 234 233 232 233 235 238 239 240 239 239 237 235 233 232 231 232 234 235 236 235 234 233 234 235 237 240
334 334 333 332 330 327 321 313 302 286 266 252 247 248 251 251 245 235 227 226 230 232 233 235 237 238 239 240 241 240 240 242 245 247 249 251 252 247 237 232 234 235 236 238 242 245 247 248 247 246 245 243 241 238 235 234 233 232 233 233 231 228 227 229 231 233 235 236 236 236 235 234 233 233 233 234 235 235 236 236 236 235 235 236 237
335 334 333 332 330 327 320 310 299 281 261 249 245 245 248 247 240 231 226 227 231 232 232 233 236 236 236 238 240 242 243 244 244 245 247 249 250 247 242 236 233 234 236 238 240 242 244 244 244 243 242 240 238 235 233 231 231 231 232 232 231 229 228 227 228 229 230 231 232 232 233 234 234 234 234 234 234 235 235 236 236 236 236 236 236
336 335 333 332 330 326 319 307 292 272 253 246 243 242 242 241 235 228 225 227 230 231 231 233 236 237 237 238 240 242 243 243 242 244 247 248 247 245 241 236 233 233 235 236 237 238 240 241 241 240 239 238 236 234 233 232 232 233 234 233 233 232 231 231 231 231 230 230 229 229 229 230 231 232 233 233 234 234 234 235 235 236 236 235 234
337 336 334 332 329 325 317 305 287 264 247 243 243 241 239 236 232 227 225 226 229 229 230 232 234 236 238 239 240 242 242 240 241 244 246 246 245 243 240 236 233 232 233 234 234 235 236 237 239 239 238 237 236 235 235 235 234 234 236 236 236 236 235 235 235 235 234 234 232 230 229 228 228 229 230 232 233 233 233 233 234 234 235 235 235
339 338 336 332 329 325 317 304 284 261 247 244 245 243 239 232 227 225 225 228 229 228 228 229 232 234 237 238 240 241 241 240 241 244 244 245 245 243 239 237 234 232 232 232 233 233 234 235 237 238 239 238 238 237 237 236 235 235 236 238 239 240 239 239 239 237 237 236 236 235 233 231 229 228 228 229 231 232 232 232 232 232 233 234 235
341 341 337 333 329 326 318 305 286 266 255 252 252 250 243 235 229 225 225 228 230 229 228 229 231 233 235 236 238 239 239 239 240 241 242 243 243 242 240 239 236 234 234 234 233 234 235 236 237 238 239 240 240 241 241 240 238 237 237 237 239 240 241 241 240 240 239 238 237 237 236 234 233 231 230 229 230 231 232 233 233 232 233 233 233
344 343 340 335 331 328 323 311 294 278 269 265 263 257 250 243 238 233 231 231 231 230 230 229 230 233 235 236 238 238 238 239 240 240 241 241 240 240 240 239 238 237 237 236 236 236 237 238 239 240 240 241 242 243 243 241 239 237 236 235 236 238 239 240 240 239 239 239 238 237 237 236 235 234 233 232 231 231 231 232 233 233 234 234 233
348 346 343 339 336 334 330 323 309 295 284 279 273 265 257 251 246 243 242 241 239 237 235 231 230 232 235 236 238 238 238 239 239 240 241 241 240 240 240 239 240 240 239 239 239 239 239 240 241 241 242 242 242 241 241 240 239 237 235 234 234 235 236 237 238 237 237 237 237 237 237 237 237 236 235 233 232 232 232 233 233 234 235 235 235
351 349 348 346 344 343 341 335 323 309 299 291 282 274 266 258 252 249 249 249 249 248 244 238 235 235 235 237 239 239 238 238 239 241 242 242 241 241 241 241 241 242 241 241 241 240 239 240 240 240 240 240 239 239 239 238 237 237 236 235 234 235 235 235 235 234 234 234 235 235 236 236 237 236 235 234 233 233 233 233 234 234 235 235 236
352 351 353 355 355 352 348 343 334 322 313 303 292 282 273 265 259 255 254 253 254 253 251 246 242 239 239 240 242 242 241 240 239 241 243 244 243 242 242 242 242 242 242 242 242 241 240 238 237 237 238 238 237 237 237 236 236 236 236 236 236 236 236 236 235 234 234 234 234 235 235 235 235 235 235 235 234 233 233 234 234 235 236 236 236
352 350 353 358 2 359 353 348 342 333 324 314 303 292 281 273 267 264 261 260 260 258 255 252 247 243 242 242 243 245 246 245 242 242 242 243 243 243 242 242 242 242 242 242 241 241 240 238 237 236 235 235 236 236 236 236 236 236 236 237 238 238 238 238 237 236 235 233 233 234 235 236 237 237 235 236 236 236 236 236 237 237 237 237 237
353 350 350 354 358 359 355 350 345 340 333 324 314 303 293 284 278 274 271 270 268 265 262 259 254 250 247 244 243 245 247 248 248 247 244 243 243 243 242 242 241 241 241 241 240 240 240 239 239 238 237 236 236 236 236 236 237 237 237 237 237 238 239 239 239 239 238 236 234 234 233 235 237 238 238 238 239 239 240 241 241 242 241 241 240
355 352 350 350 351 353 352 349 347 344 339 332 324 315 305 297 291 285 281 279 277 274 271 268 264 260 257 253 249 248 248 249 251 251 249 247 245 243 241 241 240 239 240 239 239 238 238 238 238 238 238 238 237 237 237 237 237 237 238 237 236 237 238 238 239 240 240 240 239 238 236 235 235 236 238 239 240 241 242 243 244 245 246 245 244
355 354 352 350 349 349 348 347 346 344 340 337 331 324 316 309 303 298 293 289 285 282 278 274 271 268 265 261 258 255 251 250 251 251 252 251 249 246 244 243 241 240 240 239 238 237 236 236 235 235 235 236 236 236 236 236 236 237 237 238 237 237 237 237 238 239 240 240 241 242 241 241 239 238 238 239 239 240 242 243 245 247 248 249 249
354 354 353 352 350 350 349 349 347 344 341 337 333 327 322 317 311 306 301 296 292 288 284 280 276 273 270 267 264 261 257 254 252 251 251 251 251 250 249 247 245 245 244 242 241 240 239 237 236 235 234 234 235 234 234 235 235 235 236 237 238 238 238 238 238 239 239 240 241 242 242 243 243 243 242 242 241 241 241 242 243 245 246 248 250
352 353 353 352 351 350 350 350 350 347 344 339 335 330 324 319 314 308 303 298 294 290 286 283 280 277 274 271 269 266 263 260 257 254 253 252 251 251 251 249 248 248 247 246 246 245 244 242 241 240 238 237 236 235 235 235 234 234 235 235 236 236 237 238 238 239 239 239 240 241 242 243 244 244 245 245 245 245 244 244 243 244 244 246 247